TimeCDT,TemperatureF,Dew PointF,Humidity,Sea Level PressureIn,VisibilityMPH,Wind Direction,Wind SpeedMPH,Gust SpeedMPH,PrecipitationIn,Events,Conditions,WindDirDegrees,DateUTC
12:54 AM,63.0,61.0,93,30.03,9.0,NNW,3.5,-,N/A,,Partly Cloudy,340,2013-07-03 05:54:00
1:54 AM,64.0,62.1,93,30.02,7.0,Calm,Calm,-,N/A,,Overcast,0,2013-07-03 06:54:00
2:54 AM,64.0,62.1,93,30.01,6.0,Calm,Calm,-,N/A,,Overcast,0,2013-07-03 07:54:00
3:54 AM,64.0,62.1,93,30.02,8.0,Calm,Calm,-,N/A,,Overcast,0,2013-07-03 08:54:00
4:54 AM,63.0,62.1,97,30.04,6.0,Calm,Calm,-,N/A,,Partly Cloudy,0,2013-07-03 09:54:00
5:54 AM,64.0,63.0,96,30.05,3.0,Calm,Calm,-,N/A,,Mostly Cloudy,0,2013-07-03 10:54:00
6:54 AM,64.0,63.0,96,30.06,4.0,Calm,Calm,-,N/A,,Mostly Cloudy,0,2013-07-03 11:54:00
7:54 AM,66.0,63.0,90,30.06,6.0,Calm,Calm,-,N/A,,Clear,0,2013-07-03 12:54:00
8:54 AM,69.1,63.0,81,30.08,8.0,Calm,Calm,-,N/A,,Clear,0,2013-07-03 13:54:00
9:54 AM,72.0,60.1,66,30.07,9.0,Calm,Calm,-,N/A,,Clear,0,2013-07-03 14:54:00
10:54 AM,73.9,57.9,57,30.07,9.0,Variable,3.5,-,N/A,,Clear,0,2013-07-03 15:54:00
11:54 AM,75.0,59.0,57,30.06,9.0,Calm,Calm,-,N/A,,Clear,0,2013-07-03 16:54:00
12:54 PM,78.1,59.0,52,30.06,9.0,Calm,Calm,-,N/A,,Clear,0,2013-07-03 17:54:00
1:54 PM,80.1,60.1,50,30.04,8.0,Calm,Calm,-,N/A,,Clear,0,2013-07-03 18:54:00
2:54 PM,81.0,60.1,49,30.04,8.0,SSE,8.1,-,N/A,,Clear,160,2013-07-03 19:54:00
3:54 PM,82.0,61.0,49,30.02,8.0,ESE,8.1,-,N/A,,Partly Cloudy,120,2013-07-03 20:54:00
4:54 PM,79.0,61.0,54,30.01,7.0,SE,6.9,-,N/A,,Overcast,130,2013-07-03 21:54:00
5:54 PM,81.0,60.1,49,30.00,6.0,SSE,4.6,-,N/A,,Haze,160,2013-07-03 22:54:00
6:54 PM,80.1,61.0,52,30.00,6.0,SE,4.6,-,N/A,,Haze,140,2013-07-03 23:54:00
7:54 PM,75.9,63.0,64,30.01,6.0,ESE,6.9,-,N/A,,Haze,120,2013-07-04 00:54:00
8:54 PM,73.0,63.0,71,30.02,7.0,SE,5.8,-,N/A,,Clear,130,2013-07-04 01:54:00
9:54 PM,70.0,63.0,78,30.04,6.0,SSE,6.9,-,N/A,,Haze,150,2013-07-04 02:54:00
10:54 PM,68.0,63.0,84,30.05,8.0,NE,3.5,-,N/A,,Clear,50,2013-07-04 03:54:00
11:54 PM,68.0,63.0,84,30.06,8.0,ESE,3.5,-,N/A,,Partly Cloudy,110,2013-07-04 04:54:00